STARLINK-4568, 53622

Orbit data source: Space-Track

STARLINK-4568, 53622 is a payload satellite owned by SpaceX/Seattle (US) in LEO that was launched on Sun, 28 Aug 2022 UTC via an FALCON 9 launch vehicle from the Air Force Eastern Test Range (AFETR). Payloads include a variety of satellites, spacecraft, and rockets equipped with specific instruments for various scientific and technological missions. These include communications satellites like Starlink; space stations such as the ISS; scientific satellites like the Hubble; Earth observation satellites from companies like Planet Labs, Umbra, and HawkEye 360; GPS; miniature CubeSats for education and research; and military/defense satellites.

Loading next visibility...
STARLINK-4568 details
Identifier
53622, 2022-104AL
Orbit
LEO
Last TLE update8 hours ago
Origin
Flag of USSpaceX/Seattle (US)
ManufacturerSpaceX/Seattle
MissionOperational Commercial Communications
Bus & MotorSTARLINK, Unknown motor
Mass300 kg wet, ~290 kg dry
Launch date (UTC)
2022-08-28 (2 years ago)
Launch vehicle
FALCON 9
Launch site
Air Force Eastern Test Range (AFETR)
Object type
Payload
Rocket body
Debris
Shape & HBRBox + 1 Pan, 8.86 m
Radar Cross Section13.562 m², Large (>1 m²)

Expand to show TLE details & history

TLE from 8 hours ago
0 STARLINK-4568
1 53622U 22104AL  24361.39902887 -.00000405  00000-0 -73665-5 0  9992
2 53622  53.2174  41.2912 0001341  78.1331 281.9811 15.08854220128908
Epoch: 2024-12-26T09:34Z
Definitive object data (Epoch: 2024-12-26T09:34:36.094Z)
Latitude-0.00006°
Longitude162.26178°
Altitude540.405 km
Speed7.593 km/s
True Right ascension02h 45m 09s
True Declination0° 00' 00"
Sunlit
Object was in full shadow at TLE epoch
Visualization TLE readout
Latitude50.88293°
Longitude-85.42526°
Altitude544.902 km
Speed7.596 km/s
Apparent Right ascension07h 38m 28s
Apparent Declination9° 43' 27"
Sunlit
Object is in full shadow
Visualization observer readout
Local Sidereal Time17:21:41
Azimuth319.679° NNW
Elevation-31.125°
Doppler factor1
Orbital elements
Apogee altitude540.873 km
Perigee altitude539.017 km
Semi-major axis6,918.082 km
Eccentricity0.0001341
Inclination53.2174°
RAAN41.2912°
Arg. of periapsis78.1331°
True anomaly281.96607°
Mean anomaly281.9811°
Eccentric anomaly281.97358°
Mean motion3.77194 °/min
BSTAR-0.0000073665
Orbital period95.44 mins
Loading maneuver chart data...
Loading historical data...
Loading historical data...
Loading historical data...
Loading historical data...
Loading historical data...
Loading historical data...
Loading historical data...

STARLINK-4568 Visibility forecast

Observer location: undefined°, undefined

Span
Click to sort rows by Start time (UTC) header in descending order
Start Az.
Max El. time (UTC)
Max El. Az.
Max El.
End time (UTC)
End Az.
6 mins2024-12-27 04:48:16.153Z192.767° SSW2024-12-27 04:51:16.153Z138.666° SSE28.161°2024-12-27 04:54:16.153Z73.972° E
6 mins2024-12-27 06:28:16.153Z269.311° W2024-12-27 06:31:16.153Z346.282° N30.112°2024-12-27 06:34:16.153Z35.548° NE
5 mins2024-12-27 11:30:16.153Z342.014° N2024-12-27 11:32:16.153Z37.149° NE30.126°2024-12-27 11:35:16.153Z95.106° ESE
5 mins2024-12-27 13:09:16.153Z280.141° WNW2024-12-27 13:11:16.153Z232.942° WSW29.359°2024-12-27 13:14:16.153Z168.426° S
|